Year,Month,Day,Hour,Minute,Value (Times are PST for temperature in C)
2011,03,18,00,00,3.00
2011,03,18,00,01,2.90
2011,03,18,00,02,2.90
2011,03,18,00,03,2.90
2011,03,18,00,04,2.80
2011,03,18,00,05,2.80
2011,03,18,00,06,2.80
2011,03,18,00,07,2.80
2011,03,18,00,08,2.80
2011,03,18,00,09,2.80
2011,03,18,00,10,2.80
2011,03,18,00,11,2.80
2011,03,18,00,12,2.80
2011,03,18,00,13,2.80
2011,03,18,00,14,2.80
2011,03,18,00,15,2.80
2011,03,18,00,16,2.70
2011,03,18,00,17,2.70
2011,03,18,00,18,2.70
2011,03,18,00,19,2.70
2011,03,18,00,20,2.70
2011,03,18,00,21,2.60
2011,03,18,00,22,2.60
2011,03,18,00,23,2.60
2011,03,18,00,24,2.60
2011,03,18,00,25,2.60
2011,03,18,00,26,2.60
2011,03,18,00,27,2.60
2011,03,18,00,28,2.60
2011,03,18,00,29,2.60
2011,03,18,00,30,2.60
2011,03,18,00,31,2.60
2011,03,18,00,32,2.60
2011,03,18,00,33,2.60
2011,03,18,00,34,2.60
2011,03,18,00,35,2.50
2011,03,18,00,36,2.50
2011,03,18,00,37,2.60
2011,03,18,00,38,2.60
2011,03,18,00,39,2.60
2011,03,18,00,40,2.60
2011,03,18,00,41,2.60
2011,03,18,00,42,2.60
2011,03,18,00,43,2.60
2011,03,18,00,44,2.60
2011,03,18,00,45,2.60
2011,03,18,00,46,2.60
2011,03,18,00,47,2.50
2011,03,18,00,48,2.50
2011,03,18,00,49,2.50
2011,03,18,00,50,2.50
2011,03,18,00,51,2.50
2011,03,18,00,52,2.50
2011,03,18,00,53,2.50
2011,03,18,00,54,2.50
2011,03,18,00,55,2.50
2011,03,18,00,56,2.50
2011,03,18,00,57,2.50
2011,03,18,00,58,2.40
2011,03,18,00,59,2.40
2011,03,18,01,00,2.40
2011,03,18,01,01,2.40
2011,03,18,01,02,2.40
2011,03,18,01,03,2.40
2011,03,18,01,04,2.40
2011,03,18,01,05,2.40
2011,03,18,01,06,2.40
2011,03,18,01,07,2.40
2011,03,18,01,08,2.50
2011,03,18,01,09,2.50
2011,03,18,01,10,2.60
2011,03,18,01,11,2.60
2011,03,18,01,12,2.70
2011,03,18,01,13,2.70
2011,03,18,01,14,2.70
2011,03,18,01,15,2.70
2011,03,18,01,16,2.70
2011,03,18,01,17,2.70
2011,03,18,01,18,2.70
2011,03,18,01,19,2.70
2011,03,18,01,20,2.70
2011,03,18,01,21,2.70
2011,03,18,01,22,2.70
2011,03,18,01,23,2.80
2011,03,18,01,24,2.80
2011,03,18,01,25,2.80
2011,03,18,01,26,2.70
2011,03,18,01,27,2.70
2011,03,18,01,28,2.70
2011,03,18,01,29,2.70
2011,03,18,01,30,2.70
2011,03,18,01,31,2.70
2011,03,18,01,32,2.80
2011,03,18,01,33,2.80
2011,03,18,01,34,2.80
2011,03,18,01,35,2.80
2011,03,18,01,36,2.80
2011,03,18,01,37,2.80
2011,03,18,01,38,2.80
2011,03,18,01,39,2.80
2011,03,18,01,40,2.80
2011,03,18,01,41,2.80
2011,03,18,01,42,2.80
2011,03,18,01,43,2.80
2011,03,18,01,44,2.70
2011,03,18,01,45,2.70
2011,03,18,01,46,2.70
2011,03,18,01,47,2.70
2011,03,18,01,48,2.80
2011,03,18,01,49,2.80
2011,03,18,01,50,2.80
2011,03,18,01,51,2.80
2011,03,18,01,52,2.80
2011,03,18,01,53,2.80
2011,03,18,01,54,2.80
2011,03,18,01,55,2.80
2011,03,18,01,56,2.80
2011,03,18,01,57,2.80
2011,03,18,01,58,2.80
2011,03,18,01,59,2.80
2011,03,18,02,00,2.80
2011,03,18,02,01,2.80
2011,03,18,02,02,2.80
2011,03,18,02,03,2.80
2011,03,18,02,04,2.80
2011,03,18,02,05,2.80
2011,03,18,02,06,2.80
2011,03,18,02,07,2.80
2011,03,18,02,08,2.80
2011,03,18,02,09,2.80
2011,03,18,02,10,2.70
2011,03,18,02,11,2.70
2011,03,18,02,12,2.70
2011,03,18,02,13,2.70
2011,03,18,02,14,2.70
2011,03,18,02,15,2.70
2011,03,18,02,16,2.70
2011,03,18,02,17,2.70
2011,03,18,02,18,2.70
2011,03,18,02,19,2.70
2011,03,18,02,20,2.70
2011,03,18,02,21,2.70
2011,03,18,02,22,2.70
2011,03,18,02,23,2.70
2011,03,18,02,24,2.70
2011,03,18,02,25,2.70
2011,03,18,02,26,2.70
2011,03,18,02,27,2.70
2011,03,18,02,28,2.70
2011,03,18,02,29,2.70
2011,03,18,02,30,2.70
2011,03,18,02,31,2.70
2011,03,18,02,32,2.70
2011,03,18,02,33,2.70
2011,03,18,02,34,2.70
2011,03,18,02,35,2.70
2011,03,18,02,36,2.70
2011,03,18,02,37,2.70
2011,03,18,02,38,2.70
2011,03,18,02,39,2.70
2011,03,18,02,40,2.70
2011,03,18,02,41,2.70
2011,03,18,02,42,2.70
2011,03,18,02,43,2.70
2011,03,18,02,44,2.70
2011,03,18,02,45,2.70
2011,03,18,02,46,2.70
2011,03,18,02,47,2.70
2011,03,18,02,48,2.60
2011,03,18,02,49,2.60
2011,03,18,02,50,2.60
2011,03,18,02,51,2.60
2011,03,18,02,52,2.60
2011,03,18,02,53,2.60
2011,03,18,02,54,2.60
2011,03,18,02,55,2.50
2011,03,18,02,56,2.60
2011,03,18,02,57,2.60
2011,03,18,02,58,2.60
2011,03,18,02,59,2.60
2011,03,18,03,00,2.60
2011,03,18,03,01,2.70
2011,03,18,03,02,2.70
2011,03,18,03,03,2.70
2011,03,18,03,04,2.70
2011,03,18,03,05,2.70
2011,03,18,03,06,2.60
2011,03,18,03,07,2.60
2011,03,18,03,08,2.60
2011,03,18,03,09,2.60
2011,03,18,03,10,2.60
2011,03,18,03,11,2.50
2011,03,18,03,12,2.50
2011,03,18,03,13,2.50
2011,03,18,03,14,2.60
2011,03,18,03,15,2.60
2011,03,18,03,16,2.60
2011,03,18,03,17,2.60
2011,03,18,03,18,2.60
2011,03,18,03,19,2.60
2011,03,18,03,20,2.60
2011,03,18,03,21,2.60
2011,03,18,03,22,2.60
2011,03,18,03,23,2.60
2011,03,18,03,24,2.70
2011,03,18,03,25,2.70
2011,03,18,03,26,2.70
2011,03,18,03,27,2.70
2011,03,18,03,28,2.80
2011,03,18,03,29,2.80
2011,03,18,03,30,2.80
2011,03,18,03,31,2.80
2011,03,18,03,32,2.80
2011,03,18,03,33,2.90
2011,03,18,03,34,2.90
2011,03,18,03,35,2.90
2011,03,18,03,36,3.00
2011,03,18,03,37,3.00
2011,03,18,03,38,3.10
2011,03,18,03,39,3.10
2011,03,18,03,40,3.10
2011,03,18,03,41,3.20
2011,03,18,03,42,3.20
2011,03,18,03,43,3.20
2011,03,18,03,44,3.30
2011,03,18,03,45,3.30
2011,03,18,03,46,3.30
2011,03,18,03,47,3.40
2011,03,18,03,48,3.40
2011,03,18,03,49,3.40
2011,03,18,03,50,3.40
2011,03,18,03,51,3.40
2011,03,18,03,52,3.40
2011,03,18,03,53,3.40
2011,03,18,03,54,3.40
2011,03,18,03,55,3.40
2011,03,18,03,56,3.40
2011,03,18,03,57,3.40
2011,03,18,03,58,3.40
2011,03,18,03,59,3.40
2011,03,18,04,00,3.50
2011,03,18,04,01,3.60
2011,03,18,04,02,3.60
2011,03,18,04,03,3.70
2011,03,18,04,04,3.80
2011,03,18,04,05,3.80
2011,03,18,04,06,3.90
2011,03,18,04,07,4.00
2011,03,18,04,08,4.00
2011,03,18,04,09,4.10
2011,03,18,04,10,4.20
2011,03,18,04,11,4.20
2011,03,18,04,12,4.30
2011,03,18,04,13,4.30
2011,03,18,04,14,4.40
2011,03,18,04,15,4.40
2011,03,18,04,16,4.50
2011,03,18,04,17,4.50
2011,03,18,04,18,4.60
2011,03,18,04,19,4.60
2011,03,18,04,20,4.60
2011,03,18,04,21,4.60
2011,03,18,04,22,4.70
2011,03,18,04,23,4.70
2011,03,18,04,24,4.80
2011,03,18,04,25,4.80
2011,03,18,04,26,4.80
2011,03,18,04,27,4.90
2011,03,18,04,28,4.90
2011,03,18,04,29,4.90
2011,03,18,04,30,4.90
2011,03,18,04,31,4.90
2011,03,18,04,32,4.80
2011,03,18,04,33,4.80
2011,03,18,04,34,4.80
2011,03,18,04,35,4.80
2011,03,18,04,36,4.80
2011,03,18,04,37,4.80
2011,03,18,04,38,4.80
2011,03,18,04,39,4.70
2011,03,18,04,40,4.70
2011,03,18,04,41,4.70
2011,03,18,04,42,4.70
2011,03,18,04,43,4.70
2011,03,18,04,44,4.70
2011,03,18,04,45,4.70
2011,03,18,04,46,4.70
2011,03,18,04,47,4.70
2011,03,18,04,48,4.70
2011,03,18,04,49,4.70
2011,03,18,04,50,4.70
2011,03,18,04,51,4.70
2011,03,18,04,52,4.70
2011,03,18,04,53,4.80
2011,03,18,04,54,4.80
2011,03,18,04,55,4.80
2011,03,18,04,56,4.80
2011,03,18,04,57,4.80
2011,03,18,04,58,4.80
2011,03,18,04,59,4.80
2011,03,18,05,00,4.80
2011,03,18,05,01,4.90
2011,03,18,05,02,4.90
2011,03,18,05,03,4.90
2011,03,18,05,04,4.80
2011,03,18,05,05,4.80
2011,03,18,05,06,4.80
2011,03,18,05,07,4.80
2011,03,18,05,08,4.80
2011,03,18,05,09,4.80
2011,03,18,05,10,4.80
2011,03,18,05,11,4.80
2011,03,18,05,12,4.70
2011,03,18,05,13,4.70
2011,03,18,05,14,4.70
2011,03,18,05,15,4.70
2011,03,18,05,16,4.60
2011,03,18,05,17,4.60
2011,03,18,05,18,4.60
2011,03,18,05,19,4.60
2011,03,18,05,20,4.50
2011,03,18,05,21,4.50
2011,03,18,05,22,4.50
2011,03,18,05,23,4.50
2011,03,18,05,24,4.50
2011,03,18,05,25,4.50
2011,03,18,05,26,4.40
2011,03,18,05,27,4.40
2011,03,18,05,28,4.40
2011,03,18,05,29,4.40
2011,03,18,05,30,4.30
2011,03,18,05,31,4.30
2011,03,18,05,32,4.30
2011,03,18,05,33,4.20
2011,03,18,05,34,4.20
2011,03,18,05,35,4.10
2011,03,18,05,36,4.10
2011,03,18,05,37,4.10
2011,03,18,05,38,4.10
2011,03,18,05,39,4.10
2011,03,18,05,40,4.10
2011,03,18,05,41,4.10
2011,03,18,05,42,4.10
2011,03,18,05,43,4.10
2011,03,18,05,44,4.10
2011,03,18,05,45,4.10
2011,03,18,05,46,4.10
2011,03,18,05,47,4.10
